Regional Weather Roundup
Issued by NWS Sioux Falls, SD

Home | Current Version | Previous Version | Text Only | Print | Product List | Glossary Off
Versions: 1 2 3 4 5 6 7 8 9 10 11 12 13 14 15 16 17 18 19 20 21 22 23 24 25 26 27 28 29 30 31 32 33 34 35 36 37 38 39 40 41 42 43 44 45 46 47 48 49 50

000
ASUS43 KFSD 172002
RWRFSD

WEATHER ROUNDUP FOR SE SOUTH DAKOTA/SW MINNESOTA/NW IOWA
NATIONAL WEATHER SERVICE SIOUX FALLS SD
300 PM CDT WED SEP 17 2014

NOTE: "FAIR" INDICATES FEW OR NO CLOUDS BELOW 12,000 FEET WITH NO
SIGNIFICANT WEATHER AND OR OBSTRUCTIONS TO VISIBILITY.


SDZ038>040-050-052>070-172100-
SOUTHEAST SOUTH DAKOTA

CITY           SKY/WX    TMP DP  RH WIND       PRES   REMARKS
CHAMBERLAIN    SUNNY     76  56  48 SE3       29.92F
HURON          SUNNY     78  49  35 N8        29.92S
MADISON        FAIR      72  55  56 N5        29.94S
MITCHELL       SUNNY     77  57  50 N7        29.93S
SIOUX FALLS    PTSUNNY   77  56  48 E7        29.92S
WINNER         FAIR      80  52  37 E14       29.93S
YANKTON        SUNNY     79  59  50 E8        29.90F
$$

MNZ071-072-080-081-089-090-097-098-172100-
SOUTHWEST MINNESOTA

CITY           SKY/WX    TMP DP  RH WIND       PRES   REMARKS
FAIRMONT       MOSUNNY   75  54  46 CALM      29.94S
JACKSON        CLOUDY    73  54  49 CALM      29.94F
LUVERNE        PTSUNNY   77  55  47 CALM      29.92S
MARSHALL       SUNNY     73  54  49 CALM      29.93S
MONTEVIDEO     MOSUNNY   79  57  47 CALM      29.94S
PIPESTONE      PTSUNNY   73  54  49 E5        29.93S
REDWOOD FALLS  SUNNY     76  53  44 VRB6      29.93S
TRACY          PTSUNNY   74  59  59 CALM      29.94S
WINDOM         MOSUNNY   72  57  60 E5        29.93F
WORTHINGTON    MOSUNNY   73  55  53 SE3       29.93F
$$

IAZ001>003-012>014-020>022-031-032-NEZ013-014-SDZ071-172100-
NORTHWEST IOWA

CITY           SKY/WX    TMP DP  RH WIND       PRES   REMARKS
CHEROKEE       PTSUNNY   76  56  49 S3        29.91F
DENISON        PTSUNNY   75  59  57 S5        29.90F
ESTHERVILLE    SUNNY     71  55  56 CALM      29.93
LE MARS        SUNNY     77  59  53 VRB5      29.91F
ORANGE CITY    SUNNY     77  57  50 W5        29.91F
SHELDON        MOSUNNY   75  59  57 VRB6      29.91S
SIOUX CITY     SUNNY     79  60  52 SE5       29.90F
SPENCER        PTSUNNY   75  55  49 VRB3      29.93S
STORM LAKE     SUNNY     73  57  56 VRB5G12   29.93S
$$

ABBREVIATIONS USED IN REMARKS
   TC - TEMPERATURE IN CELSIUS
  WCI - WIND CHILL INDEX
   HX - HEAT INDEX
  VSB - VISIBILITY



USA.gov is the U.S. government's official web portal to all federal, state and local government web resources and services.